Latest Weather Observations for Mount Crawford

IDS60901

Issued at 3:31 pm CST Tuesday 26 May 2015 (issued every 10 minutes, with the page automatically refreshed every 10 minutes)

About weather observations | Map of Adelaide area stations | Latest observations for Adelaide area | Other Formats
Station Details ID: 023878 Name: MT CRAWFORD AWS Lat: -34.73 Lon: 138.93 Height: 525.0 m
Data from the previous 72 hours. | See also: Recent months at Mount Crawford
Date/Time
CST
Tmp

°C
App
Tmp
°C
Dew
Point
°C
Rel
Hum
%
Delta-T

°C
Wind Press
QNH
hPa
Press
MSL
hPa
Rain
since
9 am
mm
Dir
 
Spd
km/h
Gust
km/h
Spd
kts
Gust
kts
26/03:30pm 16.3 14.0 9.0 62 3.8 N 11 17 6 9 1021.4 1021.1 0.0
26/03:00pm 16.2 12.9 7.9 58 4.3 N 15 22 8 12 1021.5 1021.2 0.0
26/02:30pm 16.6 14.2 8.8 60 4.1 NNW 11 15 6 8 1021.7 1021.4 0.0
26/02:00pm 16.1 13.4 8.8 62 3.8 NNW 13 19 7 10 1022.0 1021.7 0.0
26/01:30pm 15.5 12.4 9.0 65 3.4 NW 15 19 8 10 1022.5 1022.3 0.0
26/01:00pm 16.1 13.4 9.1 63 3.7 NW 13 20 7 11 1022.9 1022.7 0.0
26/12:30pm 16.8 13.3 8.8 59 4.2 NNW 17 24 9 13 1023.5 1023.2 0.0
26/12:00pm 16.3 13.2 9.0 62 3.8 N 15 24 8 13 1023.7 1023.4 0.0
26/11:30am 16.0 12.1 8.5 61 3.9 N 19 28 10 15 1024.4 1024.2 0.0
26/11:00am 15.6 11.2 7.6 59 4.1 NNW 20 28 11 15 1024.9 1024.7 0.0
26/10:30am 15.4 12.4 7.7 60 3.9 N 13 20 7 11 1025.0 1024.8 0.0
26/10:00am 14.1 10.3 7.4 64 3.4 N 17 22 9 12 1025.4 1025.1 0.0
26/09:30am 13.8 10.7 7.3 65 3.3 N 13 17 7 9 1025.4 1025.1 0.0
26/09:00am 13.4 10.0 7.6 68 2.9 N 15 19 8 10 1025.6 1025.3 0.2
26/08:30am 13.1 9.6 7.1 67 3.0 N 15 20 8 11 1025.5 1025.2 0.2
26/08:00am 13.2 9.2 6.8 65 3.2 N 17 22 9 12 1025.5 1025.2 0.2
26/07:30am 12.6 9.0 6.9 68 2.8 N 15 19 8 10 1025.3 1025.0 0.2
26/07:00am 12.7 8.7 6.7 67 3.0 N 17 20 9 11 1025.4 1025.1 0.2
26/06:30am 12.7 8.7 6.7 67 2.9 N 17 20 9 11 1025.4 1025.1 0.2
26/06:00am 12.7 9.1 6.7 67 2.9 N 15 22 8 12 1025.3 1025.0 0.2
26/05:30am 12.3 8.2 6.4 67 2.9 N 17 24 9 13 1025.2 1024.9 0.2
26/05:00am 12.3 8.4 7.0 70 2.6 NNE 17 20 9 11 1025.3 1025.0 0.2
26/04:30am 12.3 8.8 7.0 70 2.6 NNE 15 20 8 11 1025.4 1025.1 0.2
26/04:00am 12.6 9.1 7.1 69 2.7 NNE 15 19 8 10 1025.3 1025.0 0.2
26/03:30am 11.5 8.7 7.0 74 2.2 ENE 11 15 6 8 1025.2 1024.9 0.2
26/03:00am 11.9 8.6 6.6 70 2.6 ENE 13 15 7 8 1025.4 1025.1 0.2
26/02:30am 11.7 8.9 6.8 72 2.4 NNE 11 15 6 8 1025.9 1025.7 0.2
26/02:00am 12.0 8.8 6.9 71 2.5 NE 13 20 7 11 1025.9 1025.7 0.2
26/01:30am 12.0 7.8 7.3 73 2.3 NE 19 24 10 13 1026.2 1026.0 0.2
26/01:00am 11.8 6.8 7.9 77 2.0 NE 24 33 13 18 1026.0 1025.8 0.2
26/12:30am 11.4 6.8 8.1 80 1.7 ENE 22 28 12 15 1025.9 1025.7 0.2
26/12:00am 11.7 7.5 8.2 79 1.8 ENE 20 30 11 16 1026.0 1025.8 0.2
 
Date/Time
CST
Tmp

°C
App
Tmp
°C
Dew
Point
°C
Rel
Hum
%
Delta-T

°C
Wind Press
QNH
hPa
Press
MSL
hPa
Rain
since
9 am
mm
Dir
 
Spd
km/h
Gust
km/h
Spd
kts
Gust
kts
25/11:30pm 11.9 7.6 7.8 76 2.0 ENE 20 26 11 14 1026.9 1026.7 0.2
25/11:00pm 11.7 7.3 7.6 76 2.0 ENE 20 24 11 13 1027.3 1027.0 0.2
25/10:30pm 11.6 7.3 7.9 78 1.8 ENE 20 24 11 13 1027.3 1027.0 0.2
25/10:00pm 11.6 7.3 7.7 77 1.9 ENE 20 24 11 13 1027.1 1026.9 0.2
25/09:30pm 11.9 7.5 7.6 75 2.1 ENE 20 24 11 13 1027.0 1026.8 0.2
25/09:00pm 11.8 7.5 7.7 76 2.0 ENE 20 28 11 15 1027.1 1026.9 0.2
25/08:30pm 11.8 7.5 7.7 76 2.0 ENE 20 24 11 13 1027.3 1027.0 0.2
25/08:00pm 11.7 7.3 7.6 76 2.0 ENE 20 24 11 13 1027.3 1027.0 0.2
25/07:30pm 11.8 7.4 7.3 74 2.2 ENE 20 26 11 14 1027.1 1026.9 0.2
25/07:00pm 12.1 7.6 7.0 71 2.5 ENE 20 24 11 13 1027.0 1026.8 0.2
25/06:30pm 12.2 7.7 6.9 70 2.6 ENE 20 26 11 14 1026.8 1026.6 0.2
25/06:00pm 12.4 8.4 6.7 68 2.8 ENE 17 22 9 12 1026.6 1026.4 0.2
25/05:30pm 12.8 8.8 6.8 67 2.9 ENE 17 22 9 12 1026.4 1026.2 0.2
25/05:00pm 13.0 9.7 7.9 71 2.6 ENE 15 20 8 11 1026.3 1026.1 0.2
25/04:30pm 13.8 10.6 8.4 70 2.8 NE 15 20 8 11 1026.1 1025.9 0.2
25/04:00pm 14.6 11.3 8.1 65 3.3 NE 15 20 8 11 1025.8 1025.6 0.2
25/03:30pm 14.8 11.4 7.6 62 3.6 NE 15 20 8 11 1025.9 1025.7 0.2
25/03:00pm 15.0 11.9 7.3 60 3.9 NNE 13 17 7 9 1025.9 1025.7 0.2
25/02:30pm 15.2 11.9 6.5 56 4.3 N 13 20 7 11 1026.1 1025.9 0.2
25/02:00pm 15.6 13.3 7.6 59 4.1 N 9 19 5 10 1026.1 1025.9 0.2
25/01:30pm 15.4 12.5 6.7 56 4.3 NE 11 17 6 9 1026.0 1025.8 0.2
25/01:00pm 15.4 12.9 6.4 55 4.5 NNE 9 17 5 9 1026.3 1026.1 0.0
25/12:30pm 15.2 12.2 7.5 60 3.9 NNE 13 19 7 10 1026.6 1026.4 0.0
25/12:00pm 14.9 12.1 7.0 59 4.0 NNE 11 17 6 9 1027.3 1027.0 0.0
25/11:30am 14.8 11.7 7.1 60 3.9 N 13 20 7 11 1027.7 1027.5 0.0
25/11:00am 14.3 10.7 6.6 60 3.8 N 15 20 8 11 1028.5 1028.3 0.0
25/10:30am 14.0 9.9 6.4 60 3.7 N 17 26 9 14 1028.7 1028.5 0.0
25/10:00am 13.9 10.2 6.3 60 3.7 N 15 24 8 13 1028.8 1028.6 0.0
25/09:30am 13.4 10.4 7.6 68 2.9 NNE 13 19 7 10 1028.8 1028.6 0.0
25/09:00am 12.0 8.4 6.7 70 2.6 NNE 15 22 8 12 1028.8 1028.6 0.0
25/08:30am 11.6 8.3 6.5 71 2.5 NNE 13 19 7 10 1028.8 1028.6 0.0
25/08:00am 10.9 7.2 6.3 73 2.2 NNE 15 19 8 10 1028.7 1028.5 0.0
25/07:30am 11.0 8.0 6.0 71 2.4 NNE 11 17 6 9 1028.6 1028.4 0.0
25/07:00am 10.8 8.2 6.2 73 2.2 NNE 9 13 5 7 1028.5 1028.3 0.0
25/06:30am 10.8 8.3 6.4 74 2.1 NNE 9 13 5 7 1028.1 1027.9 0.0
25/06:00am 10.6 7.7 6.4 75 2.0 NE 11 15 6 8 1027.8 1027.6 0.0
25/05:30am 10.4 6.7 6.2 75 2.0 NE 15 19 8 10 1027.6 1027.4 0.0
25/05:00am 10.1 5.9 5.9 75 2.0 NE 17 20 9 11 1027.3 1027.0 0.0
25/04:30am 10.1 6.7 5.7 74 2.1 NE 13 15 7 8 1027.7 1027.5 0.0
25/04:00am 10.7 7.7 5.9 72 2.3 NNE 11 13 6 7 1027.9 1027.7 0.0
25/03:30am 10.9 8.5 5.4 69 2.6 NNE 7 9 4 5 1027.9 1027.7 0.0
25/03:00am 10.6 8.2 5.4 70 2.4 NE 7 9 4 5 1028.1 1027.9 0.0
25/02:30am 10.7 8.0 5.5 70 2.4 NNE 9 15 5 8 1028.2 1028.0 0.0
25/02:00am 10.2 7.1 5.4 72 2.3 NE 11 13 6 7 1028.1 1027.9 0.0
25/01:30am 10.2 6.3 5.4 72 2.2 NNE 15 19 8 10 1028.2 1028.0 0.0
25/01:00am 10.1 6.9 4.9 70 2.4 NNE 11 15 6 8 1027.8 1027.6 0.0
25/12:30am 9.6 5.3 5.2 74 2.0 NE 17 20 9 11 1027.9 1027.7 0.0
25/12:00am 10.3 6.8 5.3 71 2.3 NNE 13 17 7 9 1028.3 1028.1 0.0
 
Date/Time
CST
Tmp

°C
App
Tmp
°C
Dew
Point
°C
Rel
Hum
%
Delta-T

°C
Wind Press
QNH
hPa
Press
MSL
hPa
Rain
since
9 am
mm
Dir
 
Spd
km/h
Gust
km/h
Spd
kts
Gust
kts
24/11:30pm 9.8 6.3 5.6 75 2.0 NE 13 17 7 9 1028.2 1028.0 0.0
24/11:00pm 9.9 6.5 5.9 76 1.9 ENE 13 19 7 10 1028.1 1027.9 0.0
24/10:30pm 9.8 5.8 6.5 80 1.6 ENE 17 20 9 11 1028.2 1028.0 0.0
24/10:00pm 9.7 5.8 7.0 83 1.3 E 17 20 9 11 1028.1 1027.9 0.0
24/09:30pm 9.9 6.7 7.0 82 1.4 ENE 13 17 7 9 1028.5 1028.3 0.0
24/09:00pm 9.9 6.0 7.0 82 1.4 ENE 17 20 9 11 1028.1 1027.9 0.0
24/08:30pm 9.8 6.3 7.1 83 1.3 ENE 15 17 8 9 1027.7 1027.5 0.0
24/08:00pm 9.9 5.6 6.8 81 1.5 ESE 19 24 10 13 1027.5 1027.3 0.0
24/07:30pm 10.5 8.4 6.5 76 1.9 E 7 13 4 7 1027.9 1027.7 0.0
24/07:00pm 10.7 8.3 6.8 77 1.9 NNE 9 13 5 7 1028.8 1028.6 0.0
24/06:30pm 11.0 9.0 6.4 73 2.2 ENE 6 9 3 5 1028.6 1028.4 0.0
24/06:00pm 10.4 8.4 7.1 80 1.6 E 7 9 4 5 1028.1 1027.9 0.0
24/05:30pm 11.0 9.1 6.6 74 2.1 NNE 6 7 3 4 1027.9 1027.7 0.0
24/05:00pm 10.8 8.9 6.7 76 2.0 W 6 7 3 4 1027.7 1027.5 0.0
24/04:30pm 11.0 8.6 7.1 77 1.9 WNW 9 11 5 6 1027.8 1027.6 0.0
24/04:00pm 11.2 8.9 7.3 77 1.9 WNW 9 13 5 7 1027.7 1027.5 0.0
24/03:30pm 11.4 8.7 7.5 77 1.9 WNW 11 13 6 7 1027.6 1027.4 0.0
24/03:00pm 11.6 9.3 7.5 76 2.0 WNW 9 13 5 7 1027.3 1027.0 0.0
24/02:30pm 11.7 8.9 7.0 73 2.3 WNW 11 15 6 8 1027.0 1026.8 0.0
24/02:00pm 11.8 9.0 6.9 72 2.4 WNW 11 15 6 8 1027.3 1027.0 0.0
24/01:30pm 11.8 8.7 7.1 73 2.3 NW 13 17 7 9 1027.4 1027.2 0.0
24/01:00pm 11.9 8.2 6.4 69 2.7 WNW 15 20 8 11 1027.5 1027.3 0.0
24/12:30pm 12.4 9.2 6.7 68 2.8 NW 13 19 7 10 1027.9 1027.7 0.0
24/12:00pm 11.6 7.5 6.1 69 2.6 NNW 17 22 9 12 1028.0 1027.8 0.0
24/11:30am 10.8 7.0 5.8 71 2.4 N 15 20 8 11 1028.3 1028.1 0.0
24/11:00am 11.1 6.8 5.4 68 2.7 N 17 22 9 12 1028.5 1028.3 0.0
24/10:30am 10.9 7.3 4.8 66 2.8 N 13 17 7 9 1028.6 1028.4 0.0
24/10:00am 10.8 6.3 4.0 63 3.1 N 17 20 9 11 1028.6 1028.4 0.0
24/09:30am 10.8 6.8 4.7 66 2.8 N 15 20 8 11 1028.6 1028.4 0.0
24/09:00am 10.4 7.0 3.9 64 2.9 N 11 19 6 10 1028.5 1028.3 0.0
24/08:30am 10.0 6.0 2.6 60 3.2 N 13 20 7 11 1028.1 1027.9 0.0
24/08:00am 8.1 5.2 4.9 80 1.5 ENE 9 13 5 7 1027.8 1027.6 0.0
24/07:30am 7.3 3.6 4.3 81 1.3 ENE 13 15 7 8 1027.8 1027.6 0.0
24/07:00am 7.2 3.5 4.7 84 1.1 ENE 13 17 7 9 1027.8 1027.6 0.0
24/06:30am 7.0 3.4 5.0 87 0.9 ENE 13 17 7 9 1027.7 1027.5 0.0
24/06:00am 6.7 3.1 4.9 88 0.8 ENE 13 17 7 9 1027.4 1027.2 0.0
24/05:30am 6.9 3.6 4.6 85 1.0 ENE 11 13 6 7 1027.3 1027.0 0.0
24/05:00am 7.2 3.9 4.5 83 1.2 ENE 11 13 6 7 1027.3 1027.0 0.0
24/04:30am 6.7 3.1 4.9 88 0.8 ENE 13 17 7 9 1027.0 1026.8 0.0
24/04:00am 6.7 2.7 5.0 89 0.8 ENE 15 17 8 9 1026.9 1026.7 0.0
24/03:30am 6.5 2.9 5.0 90 0.7 ENE 13 17 7 9 1027.1 1026.9 0.0
24/03:00am 6.5 2.5 5.1 91 0.6 ENE 15 19 8 10 1027.4 1027.2 0.0
24/02:30am 6.7 2.0 5.3 91 0.6 ENE 19 22 10 12 1027.3 1027.0 0.0
24/02:00am 7.0 2.4 5.6 91 0.6 ENE 19 24 10 13 1027.4 1027.2 0.0
24/01:30am 7.0 2.4 5.8 92 0.6 NE 19 22 10 12 1027.5 1027.3 0.0
24/01:00am 6.9 2.4 6.0 94 0.4 ENE 19 24 10 13 1027.6 1027.4 0.0
24/12:30am 7.0 2.6 6.4 96 0.3 ENE 19 26 10 14 1027.7 1027.5 0.0
24/12:00am 7.2 3.2 6.5 95 0.3 ENE 17 24 9 13 1027.7 1027.5 0.0
 
Date/Time
CST
Tmp

°C
App
Tmp
°C
Dew
Point
°C
Rel
Hum
%
Delta-T

°C
Wind Press
QNH
hPa
Press
MSL
hPa
Rain
since
9 am
mm
Dir
 
Spd
km/h
Gust
km/h
Spd
kts
Gust
kts
23/11:30pm 7.0 2.3 6.1 94 0.4 ENE 20 28 11 15 1027.7 1027.5 0.0
23/11:00pm 7.4 2.0 6.2 92 0.6 ENE 24 32 13 17 1027.9 1027.7 0.0
23/10:30pm 7.6 2.6 6.4 92 0.6 ENE 22 30 12 16 1028.1 1027.9 0.0
23/10:00pm 7.7 2.7 6.6 93 0.5 ENE 22 30 12 16 1028.3 1028.1 0.0
23/09:30pm 7.4 3.1 6.8 96 0.3 E 19 24 10 13 1028.4 1028.2 0.0
23/09:00pm 7.7 3.4 7.0 95 0.3 E 19 24 10 13 1028.5 1028.3 0.0
23/08:30pm 7.6 3.1 6.9 95 0.3 ENE 20 26 11 14 1028.4 1028.2 0.0
23/08:00pm 7.7 3.8 7.1 96 0.3 ENE 17 24 9 13 1028.5 1028.3 0.0
23/07:30pm 8.2 3.7 7.1 93 0.5 ENE 20 26 11 14 1028.4 1028.2 0.0
23/07:00pm 8.1 3.7 7.2 94 0.4 ENE 20 26 11 14 1028.3 1028.1 0.0
23/06:30pm 8.4 4.6 7.5 94 0.4 ENE 17 22 9 12 1028.4 1028.2 0.0
23/06:00pm 8.7 5.3 7.8 94 0.4 E 15 19 8 10 1028.4 1028.2 0.0
23/05:30pm 9.2 6.3 8.1 93 0.5 E 13 17 7 9 1028.4 1028.2 0.0
23/05:00pm 10.0 7.1 8.3 89 0.9 ENE 13 15 7 8 1028.4 1028.2 0.0
23/04:30pm 11.2 8.7 8.4 83 1.4 ENE 11 13 6 7 1028.4 1028.2 0.0
23/04:00pm 12.6 11.9 8.7 77 2.0 SE 2 11 1 6 1028.4 1028.2 0.0

Latest Capital City Observations: Canberra | Sydney | Melbourne | Brisbane | Adelaide | Perth | Hobart | Darwin

Other Formats:

Comma delimited format used in spreadsheet applications
http://www.bom.gov.au/fwo/IDS60901/IDS60901.94678.axf

JavaScript Object Notation format (JSON) in row-major order
http://www.bom.gov.au/fwo/IDS60901/IDS60901.94678.json